Lapse_Rate
6.0 6.3 6.5 6.1 5.5 4.4 4.0 5.0 5.1 4.5 4.7 5.1 5.2 5.2 5.1 5.0 5.1 5.1 5.1 5.1 5.2 5.2
6.1 6.2 5.6 6.0 5.4 5.0 5.8 4.5 5.6 5.2 5.0 4.9 4.9 5.2 5.9 5.8 5.5 5.5 5.4 5.4 5.5 5.6
6.4 5.9 6.0 5.8 5.7 4.9 5.1 4.7 4.8 4.8 5.0 5.4 5.0 5.1 5.1 5.5 5.6 5.4 5.4 5.7 5.7 5.7
6.8 6.8 6.6 6.5 6.5 6.5 6.1 5.3 5.0 5.3 5.6 5.9 5.8 5.7 5.7 5.7 5.8 5.8 5.8 5.6 5.6 5.8
6.6 6.5 6.4 6.5 6.1 5.9 6.0 5.5 5.5 5.3 5.2 5.4 5.5 5.7 6.0 6.3 6.3 6.2 6.2 6.3 6.1 6.0
6.3 6.4 6.5 6.7 6.3 6.0 5.8 5.8 5.8 5.6 5.5 6.0 6.3 6.6 6.7 6.8 6.7 6.5 6.4 6.3 6.2 5.9
6.5 6.4 6.2 6.1 6.1 6.1 6.1 6.0 5.9 6.0 6.4 6.7 7.0 7.3 7.4 7.4 7.2 6.9 6.9 6.7 6.5 6.3
6.3 6.3 6.2 6.2 6.2 6.3 6.2 6.3 6.3 6.5 6.8 7.0 7.1 7.4 7.7 7.8 7.7 7.5 7.3 7.2 7.0 6.9
6.3 6.4 6.4 6.5 6.6 6.6 6.5 6.8 6.9 7.1 7.3 7.3 7.7 8.0 8.3 8.2 8.2 8.0 7.9 7.6 7.5 7.3
6.3 6.3 6.2 6.2 6.4 6.6 6.8 6.9 7.1 7.5 7.7 7.9 8.1 8.2 8.2 8.2 8.1 7.9 7.9 7.9 7.8 7.7
6.5 6.6 6.5 6.6 6.7 6.9 7.0 7.1 7.5 7.7 7.8 8.3 8.3 8.3 8.3 8.3 8.0 7.9 7.8 7.6 7.7 7.7
6.9 6.8 6.8 6.9 6.9 7.1 7.2 7.6 7.6 7.6 7.8 8.2 8.5 8.5 8.4 8.4 8.0 7.8 7.8 7.6 7.6 7.6
7.1 7.1 7.1 7.1 7.1 7.3 7.5 7.8 7.8 8.1 8.2 8.3 8.3 8.4 8.6 8.5 8.1 7.8 7.7 7.6 7.7 7.5
7.4 7.4 7.3 7.1 7.1 7.4 7.5 7.8 7.8 8.0 8.1 8.1 8.2 8.3 8.3 8.2 8.0 7.8 7.6 7.6 7.5 7.4
Wind_Speed
13 8 9 12 10 8 6 5 9 5 6 9 10 9 8 5 5 5 3 4 2 2
9 10 7 10 10 6 11 7 10 9 6 7 6 4 5 4 6 6 4 5 3 1
10 10 10 10 11 8 9 9 10 10 9 7 7 8 7 6 4 5 5 4 5 4
11 12 12 11 12 12 10 10 9 9 10 9 9 7 6 8 7 6 7 5 4 4
12 12 11 11 11 11 11 10 11 10 10 9 8 8 9 9 8 7 7 6 5 4
11 11 11 12 12 13 13 13 13 13 12 10 9 8 8 7 7 6 5 5 3 4
11 11 11 12 13 13 14 14 13 12 11 10 9 8 8 8 8 7 5 5 3 2
11 12 12 13 13 12 13 13 13 13 10 9 8 7 10 9 8 7 7 6 5 5
12 12 12 13 14 15 13 12 12 12 11 10 7 10 9 8 7 8 8 7 7 8
13 13 11 13 14 13 14 13 13 10 12 10 9 13 12 7 7 7 6 7 8 6
14 12 14 10 10 11 10 11 10 10 9 9 7 15 14 9 6 7 7 6 6 7
13 14 13 11 12 10 10 9 9 9 9 9 8 18 18 14 8 7 9 8 8 8
13 14 13 14 13 9 8 9 8 9 8 11 10 18 21 13 6 9 7 7 7 8
15 13 12 11 10 11 10 10 10 10 8 9 10 13 21 17 8 8 8 7 7 6
Wind_Direction
141 146 167 158 152 181 166 143 129 140 101 112 131 132 120 120 109 124 124 116 107 205
158 137 167 124 153 179 122 140 142 128 130 136 119 110 124 121 125 121 111 110 89 52
133 133 141 134 140 158 138 139 135 150 144 153 135 134 135 117 106 114 116 115 124 127
150 145 146 149 157 155 140 140 143 153 147 151 139 134 117 119 133 127 114 108 96 94
155 152 153 144 144 142 144 146 155 155 156 152 147 139 148 148 147 146 137 124 121 93
161 157 157 151 154 155 154 161 161 167 167 164 157 158 170 161 150 144 134 127 127 102
168 168 164 159 162 166 167 165 165 168 163 165 163 161 158 149 147 144 138 124 108 100
167 168 161 163 163 163 168 165 163 161 158 164 161 168 164 159 161 157 143 133 130 107
164 164 165 162 161 165 161 161 161 155 150 154 166 142 150 161 166 162 157 153 135 123
165 164 164 162 161 159 161 165 163 161 158 154 150 160 153 166 165 169 161 156 151 133
166 158 163 152 154 155 152 156 159 152 144 146 148 160 157 151 120 124 136 141 139 147
157 161 161 157 164 159 152 154 157 154 148 149 154 166 162 156 158 160 160 163 164 160
162 160 164 166 167 162 158 149 150 154 160 165 166 175 171 165 161 165 167 168 165 167
172 163 163 159 168 160 159 154 159 160 165 171 171 176 177 177 171 176 175 178 177 167